Flag for U.S.A. Weather past 2 weeks in Manhattan, Kansas, U.S.A.

Now
64 °F

Sunny.


Feels Like: 64 °F
Forecast: 31 / 64 °F
Wind: 15 mph from South

Location: Manhattan Municipal Airport

Current Time: Jan 27, 2015 at 3:33:02 PM

Latest Report: Jan 27, 2015 at 2:52 PM


Visibility: 10 mi

Pressure: 30.03 "Hg

Humidity: 34%

Dew point: 35 °F

Location of ManhattanLocation

Historic Weather in Manhattan — Graph

°F

Manhattan temperature yesterday

Maximum temperature yesterday: 68 °F (at 3:52 PM)
Minimum temperature yesterday: 22 °F (at 1:52 AM)
Average temperature yesterday: 43 °F

Past Weeks' High & Low Weather Summary

 TemperatureHumidityPressure
High68 °F (Jan 26, 3:52 PM)96% (Jan 16, 1:52 AM)30.74 "Hg (Jan 16, 1:52 AM)
Low5 °F (Jan 13, 6:52 AM)19% (Jan 16, 2:52 PM)29.72 "Hg (Jan 24, 10:52 PM)
Average35 °F63%30.16 "Hg
* Reported Jan 12 1:52 PM — Jan 27 1:52 PM, Manhattan, Weather by CustomWeather, © 2014

Note: Actual official high and low records may vary slightly from our data, if they occured in-between our weather recording intervals... More about our weather records

Advertising

Manhattan weather history for previous 24 hours

 ConditionsComfort  
Time TempWeatherWind HumidityBarometerVisibility
1:52 PM
Jan 27
64 °FSunny.12 mph33%30.05 "Hg10 mi
12:52 PM62 °FSunny.14 mph35%30.08 "Hg10 mi
11:52 AM58 °FSunny.8 mph41%30.12 "Hg10 mi
10:52 AM51 °FSunny.6 mph52%30.16 "Hg10 mi
9:52 AM40 °FSunny.No wind68%30.16 "Hg10 mi
8:52 AM32 °FSunny.No wind82%30.16 "Hg10 mi
7:52 AM26 °FSunny.No wind92%30.15 "Hg10 mi
6:52 AM26 °FClear.No wind88%30.13 "Hg10 mi
5:52 AM26 °FClear.No wind88%30.13 "Hg10 mi
4:52 AM26 °FClear.No wind92%30.11 "Hg10 mi
3:52 AM26 °FClear.No wind92%30.10 "Hg10 mi
2:52 AM27 °FClear.No wind89%30.11 "Hg10 mi
1:52 AM27 °FClear.No wind89%30.10 "Hg10 mi
12:52 AM29 °FClear.No wind85%30.09 "Hg10 mi
11:52 PM
Jan 26
28 °FClear.No wind85%30.09 "Hg10 mi
10:52 PM34 °FClear.No wind73%30.07 "Hg10 mi
9:52 PM36 °FClear.No wind70%30.05 "Hg10 mi
8:52 PM36 °FClear.No wind67%30.06 "Hg10 mi
7:52 PM43 °FClear.3 mph56%30.05 "Hg10 mi
6:52 PM56 °FClear.5 mph33%30.03 "Hg10 mi
5:52 PM56 °FClear.3 mph33%30.01 "Hg10 mi
4:52 PM67 °FSunny.6 mph22%29.98 "Hg10 mi
3:52 PM68 °FSunny.10 mph25%29.96 "Hg10 mi
Weather by CustomWeather, © 2014

See weather overviewHow to use our weather pages